Weather reports worldwide

Advertisment
Alsancak, Cyprus (17572): temperature & dewpoint: 20.05.2019 03:00:00 - 26.05.2019 03:00:00 (EEST)Alsancak, Cyprus (17572): wind speed: 20.05.2019 03:00:00 - 26.05.2019 03:00:00 (EEST)Alsancak, Cyprus (17572): wind direction: 20.05.2019 03:00:00 - 26.05.2019 03:00:00 (EEST)Alsancak, Cyprus (17572): reduced air pressure: 20.05.2019 03:00:00 - 26.05.2019 03:00:00 (EEST)Alsancak, Cyprus (17572): visibility: 20.05.2019 03:00:00 - 26.05.2019 03:00:00 (EEST)
Date & Time tt [°C] td [°C] ff [km/h] ff [kn] dd ppp [hPa] vv [km]
26.05.2019 03:00:00 - - - - - - -
26.05.2019 02:00:00 20,3 14,0 8 4 SE 1015,7 10
26.05.2019 01:00:00 20,0 13,5 0 0 N 1015,7 10
26.05.2019 00:00:00 - - - - - - -
25.05.2019 23:00:00 - - - - - - -
25.05.2019 22:00:00 20,5 15,4 29 16 WNW 1015,2 10
25.05.2019 21:00:00 21,1 21,1 18 10 SSE 1014,7 10
25.05.2019 20:00:00 21,2 15,1 22 12 W 1014,6 10
25.05.2019 19:00:00 22,5 16,5 15 8 NNW 1014,4 10
25.05.2019 18:00:00 22,7 16,8 18 10 W 1014,5 10
25.05.2019 17:00:00 22,8 16,5 34 18 WNW 1014,7 10
25.05.2019 16:00:00 22,7 16,3 37 20 WNW 1014,6 10
25.05.2019 15:00:00 22,5 16,5 26 14 NW 1014,7 10
25.05.2019 14:00:00 22,3 15,4 29 16 WNW 1014,8 10
25.05.2019 13:00:00 22,5 16,4 37 20 WNW 1014,8 10
25.05.2019 12:00:00 22,3 15,4 44 24 WNW 1014,6 10
25.05.2019 11:00:00 22,6 15,4 15 8 WNW 1014,6 10
25.05.2019 10:00:00 22,7 13,5 37 20 W 1014,5 10
25.05.2019 09:00:00 22,3 13,0 29 16 WNW 1013,5 10
25.05.2019 08:00:00 21,6 12,4 18 10 WNW 1013,2 10
25.05.2019 07:00:00 20,7 14,3 26 14 W 1012,2 10
25.05.2019 06:00:00 20,8 14,3 0 0 N 1012,1 10
25.05.2019 05:00:00 - - - - - - -
25.05.2019 04:00:00 - - - - - - -
25.05.2019 03:00:00 21,1 12,7 0 0 N 1009,7 10
25.05.2019 02:00:00 - - - - - - -
25.05.2019 01:00:00 - - - - - - -
25.05.2019 00:00:00 23,1 12,7 0 0 N 1009,7 10
24.05.2019 23:00:00 - - - - - - -
24.05.2019 22:00:00 24,1 12,7 0 0 N 1009,7 10
24.05.2019 21:00:00 24,1 15,7 22 12 WNW 1008,5 10
24.05.2019 20:00:00 24,4 16,9 0 0 N 1008,5 10
24.05.2019 19:00:00 24,3 18,5 15 8 WNW 1008,3 10
24.05.2019 18:00:00 24,6 17,0 22 12 WNW 1008,3 10
24.05.2019 17:00:00 25,1 15,1 11 6 W 1008,3 10
24.05.2019 16:00:00 24,4 17,9 11 6 W 1008,3 10
24.05.2019 15:00:00 25,0 19,8 15 8 WNW 1008,3 10
24.05.2019 14:00:00 24,7 18,8 0 0 N 1008,3 10
24.05.2019 13:00:00 - - - - - - -
24.05.2019 12:00:00 24,3 18,9 0 0 N 1009,6 10
24.05.2019 11:00:00 23,5 18,5 0 0 N 1009,0 10
24.05.2019 10:00:00 23,5 19,0 0 0 N 1008,9 10
24.05.2019 09:00:00 23,1 18,7 0 0 N 1008,5 10
24.05.2019 08:00:00 22,4 17,5 0 0 N 1008,9 10
24.05.2019 07:00:00 20,6 16,0 5 3 SE 1008,1 10
24.05.2019 06:00:00 21,4 17,0 8 4 SW 1008,9 10
24.05.2019 05:00:00 - - - - - - -
24.05.2019 04:00:00 - - - - - - -
24.05.2019 03:00:00 20,7 17,4 0 0 N 1008,9 10
24.05.2019 02:00:00 - - - - - - -
24.05.2019 01:00:00 - - - - - - -
24.05.2019 00:00:00 22,3 18,3 0 0 N 1009,0 10
23.05.2019 23:00:00 23,1 19,6 8 4 E 1009,6 10
23.05.2019 22:00:00 22,8 19,1 8 4 ESE 1010,0 10
23.05.2019 21:00:00 23,3 18,3 0 0 N 1009,6 10
23.05.2019 20:00:00 23,7 18,9 15 8 E 1010,1 10
23.05.2019 19:00:00 23,7 18,9 15 8 E 1010,5 10
23.05.2019 18:00:00 23,4 19,6 13 7 E 1011,5 10
23.05.2019 17:00:00 23,6 19,8 9 5 E 1012,0 10
23.05.2019 16:00:00 23,4 19,9 16 9 E 1012,5 10
23.05.2019 15:00:00 23,2 20,0 15 8 E 1013,1 10
23.05.2019 14:00:00 23,3 20,0 21 11 E 1013,8 10
23.05.2019 13:00:00 23,8 19,9 8 4 E 1014,4 10
23.05.2019 12:00:00 23,0 19,0 8 4 ENE 1014,4 10
23.05.2019 11:00:00 22,5 18,8 18 10 E 1013,8 10
23.05.2019 10:00:00 22,7 18,1 13 7 E 1014,1 10
23.05.2019 09:00:00 22,7 15,9 11 6 ENE 1014,2 10
23.05.2019 08:00:00 22,4 12,9 8 4 ESE 1013,3 10
23.05.2019 07:00:00 21,4 12,5 8 4 ESE 1013,6 10
23.05.2019 06:00:00 20,7 10,4 11 6 SSE 1013,9 10
23.05.2019 05:00:00 20,5 10,9 0 0 N 1015,3 10
23.05.2019 04:00:00 20,5 10,9 0 0 N 1015,3 10
23.05.2019 03:00:00 20,7 10,5 0 0 N 1015,3 10
23.05.2019 02:00:00 20,7 10,9 0 0 N 1015,3 10
23.05.2019 01:00:00 20,5 12,3 0 0 N 1015,9 10
23.05.2019 00:00:00 21,3 14,9 0 0 N 1016,1 10
22.05.2019 23:00:00 21,5 14,8 0 0 N 1016,3 10
22.05.2019 22:00:00 21,5 19,8 5 3 S 1016,3 10
22.05.2019 21:00:00 22,2 14,9 0 0 N 1016,0 10
22.05.2019 20:00:00 23,7 15,4 8 4 WSW 1016,0 10
22.05.2019 19:00:00 25,0 16,4 15 8 WNW 1015,8 10
22.05.2019 18:00:00 23,4 17,7 0 0 N 1016,1 10
22.05.2019 17:00:00 23,6 18,6 0 0 N 1016,0 10
22.05.2019 16:00:00 23,8 18,6 0 0 N 1016,5 10
22.05.2019 15:00:00 23,4 19,2 15 8 E 1017,0 10
22.05.2019 14:00:00 23,2 19,2 15 8 ENE 1017,5 10
22.05.2019 13:00:00 22,8 18,7 16 9 ENE 1017,7 10
22.05.2019 12:00:00 22,7 18,8 8 4 ENE 1017,7 10
22.05.2019 11:00:00 22,7 16,7 22 12 E 1017,3 10
22.05.2019 10:00:00 22,7 16,7 11 6 E 1017,3 10
22.05.2019 09:00:00 22,4 13,9 11 6 E 1017,3 10
22.05.2019 08:00:00 21,7 13,0 0 0 N 1016,9 10
22.05.2019 07:00:00 19,9 10,5 0 0 N 1016,7 10
22.05.2019 06:00:00 20,5 9,9 8 4 WSW 1016,7 10
22.05.2019 05:00:00 - - - - - - -
22.05.2019 04:00:00 - - - - - - -
22.05.2019 03:00:00 21,3 14,8 8 4 S 1016,9 10
22.05.2019 02:00:00 - - - - - - -
22.05.2019 01:00:00 - - - - - - -
22.05.2019 00:00:00 - - - - - - -
21.05.2019 23:00:00 21,3 11,6 8 4 SSE 1016,8 10
21.05.2019 22:00:00 22,9 11,9 15 8 W 1016,9 10
21.05.2019 21:00:00 23,2 10,3 0 0 N 1016,3 10
21.05.2019 20:00:00 23,9 10,3 0 0 N 1016,3 10
21.05.2019 19:00:00 23,7 15,8 11 6 WSW 1015,9 10
21.05.2019 18:00:00 23,7 14,5 16 9 SSW 1017,0 10
21.05.2019 17:00:00 24,0 13,9 29 16 WNW 1016,8 10
21.05.2019 16:00:00 23,3 18,8 13 7 WNW 1017,3 10
21.05.2019 15:00:00 23,6 18,3 22 12 WNW 1017,5 10
21.05.2019 14:00:00 24,6 12,5 9 5 W 1017,7 10
21.05.2019 13:00:00 - - - - - - -
21.05.2019 12:00:00 21,7 17,7 16 9 WNW 1018,2 10
21.05.2019 11:00:00 21,7 17,5 18 10 WNW 1017,8 10
21.05.2019 10:00:00 22,1 16,6 8 4 WNW 1017,4 10
21.05.2019 09:00:00 22,2 14,6 18 10 NNW 1017,3 10
21.05.2019 08:00:00 21,8 9,6 0 0 N 1016,8 10
21.05.2019 07:00:00 20,9 6,3 0 0 N 1016,5 10
21.05.2019 06:00:00 20,8 5,0 0 0 N 1016,3 10
21.05.2019 05:00:00 - - - - - - -
21.05.2019 04:00:00 - - - - - - -
21.05.2019 03:00:00 21,8 4,0 8 4 W 1016,3 10
21.05.2019 02:00:00 - - - - - - -
21.05.2019 01:00:00 - - - - - - -
21.05.2019 00:00:00 - - - - - - -
20.05.2019 23:00:00 24,0 5,3 15 8 W 1016,3 10
20.05.2019 22:00:00 24,6 2,8 15 8 W 1015,8 10
20.05.2019 21:00:00 23,5 5,9 11 6 W 1015,8 10
20.05.2019 20:00:00 23,6 11,6 11 6 W 1015,8 10
20.05.2019 19:00:00 22,0 18,0 11 6 W 1016,7 10
20.05.2019 18:00:00 23,4 17,2 11 6 WNW 1016,5 10
20.05.2019 17:00:00 22,5 18,0 22 12 W 1016,7 10
20.05.2019 16:00:00 22,5 18,0 0 0 N 1017,4 10
20.05.2019 15:00:00 22,2 17,8 0 0 N 1017,3 10
20.05.2019 14:00:00 22,2 17,9 0 0 N 1017,0 10
20.05.2019 13:00:00 22,0 17,8 0 0 N 1017,4 10
20.05.2019 12:00:00 21,9 17,3 0 0 N 1017,4 10
20.05.2019 11:00:00 22,1 16,5 0 0 N 1017,2 10
20.05.2019 10:00:00 22,2 16,1 0 0 N 1016,9 10
20.05.2019 09:00:00 21,9 14,8 0 0 N 1016,5 10
20.05.2019 08:00:00 21,8 13,7 5 3 E 1015,9 10
20.05.2019 07:00:00 19,5 11,2 8 4 S 1015,5 10
20.05.2019 06:00:00 19,0 10,2 5 3 S 1014,9 10
20.05.2019 05:00:00 - - - - - - -
20.05.2019 04:00:00 - - - - - - -
20.05.2019 03:00:00 22,1 11,3 8 4 W 1013,9 10

tt = temperature
td = dewpoint
ff = wind speed
dd = wind direction
ppp = reduced air pressure
vv = visibility

Next stations